THOR ABLESTAR DEB, 3125

Orbit data source: Space-Track

THOR ABLESTAR DEB, 3125 is space debris in LEO originally from a launch on Thu, 29 Jun 1961 UTC launched from the Air Force Eastern Test Range (AFETR). Debris objects in space refer to the collection of defunct objects orbiting the Earth. Examples of debris include non-operational satellites, rocket bodies, and fragments generated from explosions, collisions, or faulty payload assembly.

Loading next visibility...
Identifier
3125, 1961-015HY
Orbit
LEO
Country
Flag of USUS
Related business
Manufacturer
Unknown
Mission
Spacecraft
Bus & Motor
Unknown
Mass
Unknown
Launch date (UTC)
1961-06-29 (64 years ago)
Launch vehicle
Unknown
Launch site
Air Force Eastern Test Range (AFETR)
Object type
Payload
Rocket body
Debris
Shape & HBR
Unknown shape, 0.1 m
Radar Cross Section
Small (<0.1 m²)

Expand to show TLE details & history
Last TLE update: 15 hours ago

TLE from 15 hours ago
0 THOR ABLESTAR DEB
1 03125U 61015HY  25349.93648462  .00000202  00000-0  45128-3 0  9996
2 03125  67.5581 283.2209 0306257 186.9133 252.3425 13.27451553123202
Epoch: 2025-12-15T22:28Z
TLE epoch observation values (Epoch: 2025-12-15T22:28:32.271Z)
Latitude
63.82374°
Longitude
-82.01757°
Altitude
1,242.934 km
Speed
7.203 km/s
True Right ascension
22h 39m 46s
True Declination
63° 41' 46"
Sunlit
Object was in daylight at epoch
Visualization orbit readout
Latitude
Unknown
Longitude
Unknown
Altitude
Unknown
Speed
Unknown
Apparent Right ascension
Unknown
Apparent Declination
Unknown
Sunlit
N/A
Visualization observer readout
Local Sidereal Time
12:36:43
Azimuth
Unknown
Elevation
Unknown
Doppler factor
Unknown
Orbital elements
Apogee altitude
1,385.449 km
Perigee altitude
924.049 km
Semi-major axis
7,532.886 km
Eccentricity
0.03063
Inclination
67.5581°
RAAN
283.2209°
Arg. of periapsis
186.9133°
True anomaly
249.03863°
Mean anomaly
252.3425°
Eccentric anomaly
250.68653°
Mean motion
3.31972 °/min
Orbital period
108.44 mins
BSTAR
0.00045128
Loading maneuver chart data...
Computing Atmospheric mass density...

Documentation

Showing up to 5 results
|